| time (UTC) | temp C | wind direction | speed KPH | gust KPH | rain 1hr cm | rain 24hr cm | rain mn cm | humidity % | barometer mb |
| 20260902153534 | 20 | 324 | 4.8 | 16.1 | 0.00 | 0.00 | 0.00 | 54 | 1012.6 |
| 20260902153036 | 20 | 295 | 4.8 | 19.3 | 0.00 | 0.00 | 0.00 | 53 | 1012.7 |
| 20260902152532 | 20 | 243 | 8.0 | 19.3 | 0.00 | 0.00 | 0.00 | 53 | 1012.9 |
| 20260902152036 | 20 | 266 | 9.7 | 17.7 | 0.00 | 0.00 | 0.00 | 53 | 1012.9 |
| 20260902151537 | 20 | 259 | 6.4 | 17.7 | 0.00 | 0.00 | 0.00 | 53 | 1012.9 |
| 20260902151030 | 20 | 273 | 9.7 | 30.6 | 0.00 | 0.00 | 0.00 | 53 | 1013.1 |
| 20260902150530 | 20 | 269 | 9.7 | 30.6 | 0.00 | 0.00 | 0.00 | 53 | 1013.0 |
| 20260902150030 | 20 | 259 | 9.7 | 17.7 | 0.00 | 0.00 | 0.00 | 53 | 1013.0 |
| 20260902145529 | 20 | 290 | 6.4 | 20.9 | 0.00 | 0.00 | 0.00 | 53 | 1013.1 |
| 20260902145031 | 20 | 275 | 9.7 | 24.1 | 0.00 | 0.00 | 0.00 | 53 | 1013.1 |
| 20260902144529 | 20 | 277 | 9.7 | 24.1 | 0.00 | 0.00 | 0.00 | 53 | 1013.1 |
| 20260902144028 | 20 | 291 | 9.7 | 17.7 | 0.00 | 0.00 | 0.00 | 53 | 1013.1 |
| 20260902143527 | 20 | 294 | 8.0 | 17.7 | 0.00 | 0.00 | 0.00 | 53 | 1013.1 |
| 20260902143127 | 20 | 282 | 8.0 | 17.7 | 0.00 | 0.00 | 0.00 | 53 | 1013.1 |
| 20260902142526 | 20 | 257 | 8.0 | 19.3 | 0.00 | 0.00 | 0.00 | 52 | 1013.2 |
| 20260902142025 | 20 | 294 | 9.7 | 19.3 | 0.00 | 0.00 | 0.00 | 52 | 1013.2 |
| 20260902141533 | 20 | 263 | 9.7 | 17.7 | 0.00 | 0.00 | 0.00 | 52 | 1013.2 |
| 20260902141024 | 20 | 292 | 9.7 | 22.5 | 0.00 | 0.00 | 0.00 | 52 | 1013.3 |
| 20260902140523 | 20 | 278 | 9.7 | 22.5 | 0.00 | 0.00 | 0.00 | 53 | 1013.2 |
| 20260902140021 | 20 | 254 | 9.7 | 20.9 | 0.00 | 0.00 | 0.00 | 53 | 1013.2 |
| 20260902135521 | 20 | 295 | 8.0 | 17.7 | 0.00 | 0.00 | 0.00 | 53 | 1013.2 |
| 20260902135021 | 20 | 281 | 9.7 | 20.9 | 0.00 | 0.00 | 0.00 | 54 | 1013.3 |
| 20260902134522 | 20 | 274 | 8.0 | 20.9 | 0.00 | 0.00 | 0.00 | 55 | 1013.4 |
| 20260902134021 | 19 | 235 | 4.8 | 14.5 | 0.00 | 0.00 | 0.00 | 56 | 1013.4 |
| 20260902133529 | 19 | 284 | 4.8 | 14.5 | 0.00 | 0.00 | 0.00 | 56 | 1013.5 |
| 20260902133021 | 18 | 267 | 4.8 | 14.5 | 0.00 | 0.00 | 0.00 | 56 | 1013.5 |
| 20260902132524 | 19 | 303 | 4.8 | 14.5 | 0.00 | 0.00 | 0.00 | 55 | 1013.5 |
| 20260902132020 | 19 | 267 | 3.2 | 12.9 | 0.00 | 0.00 | 0.00 | 55 | 1013.4 |
| 20260902131520 | 19 | 308 | 3.2 | 9.7 | 0.00 | 0.00 | 0.00 | 54 | 1013.4 |
| 20260902131020 | 19 | 294 | 3.2 | 8.0 | 0.00 | 0.00 | 0.00 | 54 | 1013.5 |
| 20260902130519 | 19 | 289 | 1.6 | 12.9 | 0.00 | 0.00 | 0.00 | 53 | 1013.5 |
| 20260902130030 | 20 | 275 | 3.2 | 12.9 | 0.00 | 0.00 | 0.00 | 52 | 1013.6 |
| 20260902125521 | 20 | 275 | 3.2 | 9.7 | 0.00 | 0.00 | 0.00 | 52 | 1013.7 |
| 20260902125019 | 20 | 294 | 3.2 | 4.8 | 0.00 | 0.00 | 0.00 | 52 | 1013.6 |
| 20260902124519 | 20 | 288 | 3.2 | 4.8 | 0.00 | 0.00 | 0.00 | 51 | 1013.6 |
| 20260902124019 | 20 | 286 | 3.2 | 6.4 | 0.00 | 0.00 | 0.00 | 50 | 1013.7 |
| 20260902123519 | 21 | 252 | 1.6 | 8.0 | 0.00 | 0.00 | 0.00 | 49 | 1013.7 |
| 20260902123027 | 21 | 272 | 3.2 | 9.7 | 0.00 | 0.00 | 0.00 | 48 | 1013.7 |
| 20260902122519 | 21 | 266 | 3.2 | 11.3 | 0.00 | 0.00 | 0.00 | 47 | 1013.8 |
| 20260902122018 | 22 | 267 | 4.8 | 11.3 | 0.00 | 0.00 | 0.00 | 46 | 1013.9 |
| 20260902121519 | 22 | 252 | 4.8 | 11.3 | 0.00 | 0.00 | 0.00 | 46 | 1014.0 |
| 20260902121021 | 22 | 279 | 4.8 | 17.7 | 0.00 | 0.00 | 0.00 | 46 | 1014.1 |
| 20260902120519 | 22 | 286 | 4.8 | 20.9 | 0.00 | 0.00 | 0.00 | 46 | 1014.1 |
| 20260902120017 | 22 | 263 | 4.8 | 12.9 | 0.00 | 0.00 | 0.00 | 46 | 1014.1 |
| 20260902115517 | 22 | 239 | 4.8 | 14.5 | 0.00 | 0.00 | 0.00 | 45 | 1014.1 |
| 20260902115017 | 22 | 266 | 4.8 | 14.5 | 0.00 | 0.00 | 0.00 | 45 | 1014.2 |
| 20260902114524 | 22 | 267 | 4.8 | 12.9 | 0.00 | 0.00 | 0.00 | 45 | 1014.2 |
| 20260902114017 | 22 | 254 | 6.4 | 12.9 | 0.00 | 0.00 | 0.00 | 45 | 1014.2 |
| 20260902113516 | 22 | 275 | 4.8 | 14.5 | 0.00 | 0.00 | 0.00 | 44 | 1014.2 |
| 20260902113016 | 22 | 284 | 4.8 | 14.5 | 0.00 | 0.00 | 0.00 | 44 | 1014.2 |
| 20260902112516 | 22 | 271 | 6.4 | 16.1 | 0.00 | 0.00 | 0.00 | 43 | 1014.2 |
| 20260902112017 | 22 | 263 | 4.8 | 16.1 | 0.00 | 0.00 | 0.00 | 43 | 1014.2 |
| 20260902111518 | 22 | 270 | 6.4 | 16.1 | 0.00 | 0.00 | 0.00 | 43 | 1014.2 |
| 20260902111017 | 23 | 283 | 8.0 | 19.3 | 0.00 | 0.00 | 0.00 | 43 | 1014.2 |
| 20260902110515 | 23 | 262 | 9.7 | 19.3 | 0.00 | 0.00 | 0.00 | 42 | 1014.1 |
| 20260902110015 | 23 | 269 | 11.3 | 19.3 | 0.00 | 0.00 | 0.00 | 42 | 1014.1 |
| 20260902105515 | 23 | 282 | 9.7 | 27.4 | 0.00 | 0.00 | 0.00 | 42 | 1014.2 |
| 20260902105019 | 23 | 264 | 14.5 | 27.4 | 0.00 | 0.00 | 0.00 | 42 | 1014.2 |
| 20260902104521 | 23 | 249 | 12.9 | 20.9 | 0.00 | 0.00 | 0.00 | 43 | 1014.1 |
| 20260902104015 | 23 | 306 | 9.7 | 19.3 | 0.00 | 0.00 | 0.00 | 43 | 1014.1 |
| 20260902103514 | 23 | 300 | 9.7 | 19.3 | 0.00 | 0.00 | 0.00 | 44 | 1014.2 |
| 20260902103014 | 23 | 219 | 9.7 | 19.3 | 0.00 | 0.00 | 0.00 | 44 | 1014.2 |
| 20260902102514 | 23 | 233 | 6.4 | 17.7 | 0.00 | 0.00 | 0.00 | 44 | 1014.1 |
| 20260902102015 | 23 | 258 | 8.0 | 19.3 | 0.00 | 0.00 | 0.00 | 44 | 1014.1 |
| 20260902101513 | 23 | 280 | 11.3 | 20.9 | 0.00 | 0.00 | 0.00 | 44 | 1014.1 |
| 20260902101013 | 23 | 271 | 8.0 | 20.9 | 0.00 | 0.00 | 0.00 | 44 | 1014.0 |
| 20260902100513 | 23 | 276 | 8.0 | 16.1 | 0.00 | 0.00 | 0.00 | 44 | 1013.8 |
| 20260902100013 | 23 | 271 | 8.0 | 16.1 | 0.00 | 0.00 | 0.00 | 45 | 1013.7 |
| 20260902095512 | 22 | 245 | 8.0 | 14.5 | 0.00 | 0.00 | 0.00 | 45 | 1013.7 |
| 20260902095011 | 23 | 258 | 4.8 | 14.5 | 0.00 | 0.00 | 0.00 | 45 | 1013.8 |
| 20260902094512 | 22 | 236 | 6.4 | 12.9 | 0.00 | 0.00 | 0.00 | 45 | 1013.9 |
| 20260902094012 | 22 | 269 | 6.4 | 12.9 | 0.00 | 0.00 | 0.00 | 45 | 1013.7 |
| 20260902093511 | 22 | 283 | 4.8 | 9.7 | 0.00 | 0.00 | 0.00 | 46 | 1013.7 |
| 20260902093112 | 22 | 276 | 4.8 | 11.3 | 0.00 | 0.00 | 0.00 | 46 | 1013.6 |
| 20260902092511 | 22 | 279 | 4.8 | 12.9 | 0.00 | 0.00 | 0.00 | 47 | 1013.6 |
| 20260902092015 | 22 | 269 | 4.8 | 11.3 | 0.00 | 0.00 | 0.00 | 47 | 1013.5 |
| 20260902091511 | 22 | 226 | 4.8 | 14.5 | 0.00 | 0.00 | 0.00 | 49 | 1013.5 |
| 20260902091014 | 22 | 262 | 6.4 | 14.5 | 0.00 | 0.00 | 0.00 | 49 | 1013.3 |
| 20260902090510 | 22 | 232 | 6.4 | 12.9 | 0.00 | 0.00 | 0.00 | 52 | 1013.3 |
| 20260902090012 | 22 | 282 | 6.4 | 11.3 | 0.00 | 0.00 | 0.00 | 53 | 1013.3 |
| 20260902085511 | 22 | 285 | 4.8 | 11.3 | 0.00 | 0.00 | 0.00 | 53 | 1013.3 |
| 20260902085010 | 22 | 275 | 6.4 | 11.3 | 0.00 | 0.00 | 0.00 | 53 | 1013.2 |
| 20260902084510 | 22 | 284 | 6.4 | 11.3 | 0.00 | 0.00 | 0.00 | 53 | 1013.2 |
| 20260902084010 | 22 | 279 | 4.8 | 11.3 | 0.00 | 0.00 | 0.00 | 53 | 1013.2 |
| 20260902083510 | 22 | 263 | 4.8 | 11.3 | 0.00 | 0.00 | 0.00 | 53 | 1013.1 |
| 20260902083010 | 22 | 279 | 4.8 | 11.3 | 0.00 | 0.00 | 0.00 | 53 | 1013.1 |
| 20260902082509 | 22 | 264 | 3.2 | 11.3 | 0.00 | 0.00 | 0.00 | 52 | 1013.0 |
| 20260902082009 | 22 | 261 | 4.8 | 9.7 | 0.00 | 0.00 | 0.00 | 52 | 1013.0 |
| 20260902081509 | 22 | 297 | 3.2 | 8.0 | 0.00 | 0.00 | 0.00 | 52 | 1012.9 |
| 20260902081010 | 23 | 273 | 3.2 | 6.4 | 0.00 | 0.00 | 0.00 | 51 | 1012.9 |
| 20260902080509 | 23 | 254 | 1.6 | 6.4 | 0.00 | 0.00 | 0.00 | 51 | 1012.8 |
| 20260902080008 | 23 | 251 | 3.2 | 6.4 | 0.00 | 0.00 | 0.00 | 50 | 1012.8 |
| 20260902075508 | 23 | 270 | 1.6 | 6.4 | 0.00 | 0.00 | 0.00 | 49 | 1012.8 |
| 20260902075008 | 23 | 284 | 3.2 | 11.3 | 0.00 | 0.00 | 0.00 | 48 | 1012.7 |
| 20260902074507 | 24 | 253 | 3.2 | 11.3 | 0.00 | 0.00 | 0.00 | 48 | 1012.6 |
| 20260902074009 | 24 | 281 | 3.2 | 14.5 | 0.00 | 0.00 | 0.00 | 47 | 1012.6 |
| 20260902073507 | 24 | 248 | 4.8 | 14.5 | 0.00 | 0.00 | 0.00 | 46 | 1012.5 |
| 20260902073020 | 25 | 266 | 6.4 | 17.7 | 0.00 | 0.00 | 0.00 | 46 | 1012.4 |
| 20260902072507 | 25 | 269 | 8.0 | 20.9 | 0.00 | 0.00 | 0.00 | 45 | 1012.4 |
| 20260902072007 | 25 | 252 | 8.0 | 24.1 | 0.00 | 0.00 | 0.00 | 45 | 1012.4 |
| 20260902071507 | 25 | 272 | 8.0 | 16.1 | 0.00 | 0.00 | 0.00 | 45 | 1012.4 |
| 20260902071007 | 25 | 309 | 8.0 | 16.1 | 0.00 | 0.00 | 0.00 | 44 | 1012.4 |
| 20260902070505 | 25 | 290 | 6.4 | 17.7 | 0.00 | 0.00 | 0.00 | 44 | 1012.4 |
| 20260902070007 | 25 | 281 | 6.4 | 16.1 | 0.00 | 0.00 | 0.00 | 44 | 1012.4 |
| 20260902065506 | 25 | 265 | 6.4 | 19.3 | 0.00 | 0.00 | 0.00 | 44 | 1012.3 |
| 20260902065006 | 25 | 242 | 11.3 | 19.3 | 0.00 | 0.00 | 0.00 | 43 | 1012.3 |
| 20260902064505 | 26 | 223 | 9.7 | 19.3 | 0.00 | 0.00 | 0.00 | 43 | 1012.3 |
| 20260902064005 | 26 | 281 | 9.7 | 20.9 | 0.00 | 0.00 | 0.00 | 42 | 1012.3 |
| 20260902063505 | 26 | 276 | 8.0 | 22.5 | 0.00 | 0.00 | 0.00 | 43 | 1012.2 |
| 20260902063012 | 26 | 238 | 9.7 | 27.4 | 0.00 | 0.00 | 0.00 | 43 | 1012.2 |
| 20260902062505 | 26 | 265 | 9.7 | 27.4 | 0.00 | 0.00 | 0.00 | 43 | 1012.2 |
| 20260902062005 | 25 | 282 | 11.3 | 24.1 | 0.00 | 0.00 | 0.00 | 43 | 1012.2 |
| 20260902061505 | 26 | 294 | 14.5 | 22.5 | 0.00 | 0.00 | 0.00 | 43 | 1012.2 |
| 20260902061011 | 25 | 260 | 14.5 | 24.1 | 0.00 | 0.00 | 0.00 | 44 | 1012.2 |
| 20260902060506 | 25 | 256 | 14.5 | 24.1 | 0.00 | 0.00 | 0.00 | 43 | 1012.2 |
| 20260902060003 | 26 | 281 | 14.5 | 24.1 | 0.00 | 0.00 | 0.00 | 43 | 1012.1 |
| 20260902055503 | 26 | 238 | 12.9 | 24.1 | 0.00 | 0.00 | 0.00 | 44 | 1012.2 |
| 20260902055003 | 26 | 221 | 9.7 | 24.1 | 0.00 | 0.00 | 0.00 | 44 | 1012.1 |
| 20260902054510 | 26 | 240 | 12.9 | 25.7 | 0.00 | 0.00 | 0.00 | 44 | 1012.2 |
| 20260902054002 | 26 | 290 | 12.9 | 25.7 | 0.00 | 0.00 | 0.00 | 43 | 1012.2 |
| 20260902053502 | 26 | 229 | 12.9 | 27.4 | 0.00 | 0.00 | 0.00 | 43 | 1012.3 |
| 20260902053001 | 26 | 292 | 11.3 | 27.4 | 0.00 | 0.00 | 0.00 | 43 | 1012.3 |
| 20260902052501 | 26 | 287 | 11.3 | 27.4 | 0.00 | 0.00 | 0.00 | 43 | 1012.4 |
| 20260902052000 | 26 | 220 | 14.5 | 29.0 | 0.00 | 0.00 | 0.00 | 44 | 1012.3 |
| 20260902051609 | 26 | 245 | 14.5 | 29.0 | 0.00 | 0.00 | 0.00 | 44 | 1012.3 |
| 20260902051001 | 25 | 229 | 9.7 | 27.4 | 0.00 | 0.00 | 0.00 | 44 | 1012.3 |
| 20260902050600 | 25 | 273 | 12.9 | 27.4 | 0.00 | 0.00 | 0.00 | 44 | 1012.3 |
| 20260902050100 | 25 | 275 | 12.9 | 25.7 | 0.00 | 0.00 | 0.00 | 44 | 1012.4 |
| 20260902045559 | 26 | 261 | 12.9 | 25.7 | 0.00 | 0.00 | 0.00 | 43 | 1012.3 |
| 20260902045059 | 26 | 238 | 16.1 | 38.6 | 0.00 | 0.00 | 0.00 | 43 | 1012.3 |
| 20260902044559 | 25 | 285 | 20.9 | 38.6 | 0.00 | 0.00 | 0.00 | 43 | 1012.4 |
| 20260902044059 | 25 | 279 | 11.3 | 25.7 | 0.00 | 0.00 | 0.00 | 45 | 1012.4 |
| 20260902043558 | 25 | 277 | 11.3 | 33.8 | 0.00 | 0.00 | 0.00 | 44 | 1012.4 |
| 20260902043058 | 26 | 246 | 17.7 | 33.8 | 0.00 | 0.00 | 0.00 | 43 | 1012.4 |
| 20260902042601 | 26 | 290 | 11.3 | 24.1 | 0.00 | 0.00 | 0.00 | 43 | 1012.4 |
| 20260902042058 | 26 | 302 | 12.9 | 29.0 | 0.00 | 0.00 | 0.00 | 44 | 1012.5 |
| 20260902041608 | 25 | 242 | 11.3 | 38.6 | 0.00 | 0.00 | 0.00 | 44 | 1012.5 |
| 20260902041058 | 25 | 271 | 17.7 | 38.6 | 0.00 | 0.00 | 0.00 | 43 | 1012.5 |
| 20260902040556 | 25 | 276 | 11.3 | 29.0 | 0.00 | 0.00 | 0.00 | 44 | 1012.5 |
| 20260902040056 | 26 | 293 | 14.5 | 27.4 | 0.00 | 0.00 | 0.00 | 43 | 1012.6 |
| 20260902035555 | 26 | 261 | 16.1 | 32.2 | 0.00 | 0.00 | 0.00 | 43 | 1012.5 |
| 20260902035054 | 26 | 246 | 14.5 | 32.2 | 0.00 | 0.00 | 0.00 | 43 | 1012.6 |
| 20260902034555 | 26 | 276 | 11.3 | 27.4 | 0.00 | 0.00 | 0.00 | 43 | 1012.7 |
| 20260902034055 | 26 | 281 | 14.5 | 25.7 | 0.00 | 0.00 | 0.00 | 43 | 1012.8 |
| 20260902033551 | 26 | 217 | 12.9 | 32.2 | 0.00 | 0.00 | 0.00 | 43 | 1012.8 |
| 20260902033055 | 26 | 279 | 14.5 | 33.8 | 0.00 | 0.00 | 0.00 | 43 | 1012.9 |
| 20260902032550 | 25 | 247 | 16.1 | 33.8 | 0.00 | 0.00 | 0.00 | 43 | 1012.9 |
| 20260902032048 | 25 | 244 | 16.1 | 27.4 | 0.00 | 0.00 | 0.00 | 44 | 1013.0 |
| 20260902031548 | 25 | 250 | 16.1 | 40.2 | 0.00 | 0.00 | 0.00 | 43 | 1013.1 |
| 20260902031047 | 25 | 259 | 17.7 | 40.2 | 0.00 | 0.00 | 0.00 | 43 | 1013.2 |
| 20260902030545 | 25 | 287 | 14.5 | 27.4 | 0.00 | 0.00 | 0.00 | 44 | 1013.4 |
| 20260902030048 | 25 | 288 | 14.5 | 27.4 | 0.00 | 0.00 | 0.00 | 44 | 1013.5 |
| 20260902025543 | 25 | 226 | 16.1 | 27.4 | 0.00 | 0.00 | 0.00 | 43 | 1013.6 |
| 20260902025042 | 25 | 325 | 12.9 | 27.4 | 0.00 | 0.00 | 0.00 | 44 | 1013.7 |
| 20260902024540 | 25 | 234 | 17.7 | 27.4 | 0.00 | 0.00 | 0.00 | 44 | 1013.8 |
| 20260902024040 | 25 | 210 | 12.9 | 33.8 | 0.00 | 0.00 | 0.00 | 44 | 1014.0 |
| 20260902023538 | 25 | 296 | 14.5 | 33.8 | 0.00 | 0.00 | 0.00 | 45 | 1014.0 |
| 20260902023043 | 25 | 278 | 17.7 | 38.6 | 0.00 | 0.00 | 0.00 | 45 | 1014.2 |
| 20260902022534 | 24 | 348 | 17.7 | 38.6 | 0.00 | 0.00 | 0.00 | 46 | 1014.3 |
| 20260902022033 | 24 | 276 | 16.1 | 33.8 | 0.00 | 0.00 | 0.00 | 46 | 1014.4 |
| 20260902021542 | 23 | 236 | 12.9 | 29.0 | 0.00 | 0.00 | 0.00 | 48 | 1014.5 |
| 20260902021031 | 23 | 243 | 17.7 | 35.4 | 0.00 | 0.00 | 0.00 | 47 | 1014.7 |
| 20260902020530 | 23 | 266 | 17.7 | 38.6 | 0.00 | 0.00 | 0.00 | 47 | 1014.8 |
| 20260902020030 | 23 | 234 | 19.3 | 38.6 | 0.00 | 0.00 | 0.00 | 47 | 1015.0 |
| 20260902015530 | 23 | 267 | 20.9 | 37.0 | 0.00 | 0.00 | 0.00 | 47 | 1015.0 |
| 20260902015028 | 23 | 268 | 16.1 | 37.0 | 0.00 | 0.00 | 0.00 | 47 | 1015.0 |
| 20260902014527 | 23 | 305 | 14.5 | 37.0 | 0.00 | 0.00 | 0.00 | 48 | 1015.2 |
| 20260902014026 | 23 | 250 | 20.9 | 30.6 | 0.00 | 0.00 | 0.00 | 47 | 1015.3 |
| 20260902013529 | 23 | 244 | 17.7 | 37.0 | 0.00 | 0.00 | 0.00 | 47 | 1015.4 |
| 20260902013024 | 23 | 277 | 17.7 | 37.0 | 0.00 | 0.00 | 0.00 | 47 | 1015.5 |
| 20260902012523 | 23 | 243 | 11.3 | 38.6 | 0.00 | 0.00 | 0.00 | 48 | 1015.6 |
| 20260902012021 | 23 | 273 | 19.3 | 37.0 | 0.00 | 0.00 | 0.00 | 47 | 1015.7 |
| 20260902011521 | 23 | 267 | 17.7 | 32.2 | 0.00 | 0.00 | 0.00 | 48 | 1015.8 |
| 20260902011021 | 22 | 243 | 8.0 | 14.5 | 0.00 | 0.00 | 0.00 | 53 | 1015.9 |
| 20260902010517 | 22 | 261 | 6.4 | 19.3 | 0.00 | 0.00 | 0.00 | 54 | 1016.1 |
| 20260902010016 | 21 | 302 | 9.7 | 20.9 | 0.00 | 0.00 | 0.00 | 54 | 1016.1 |
| 20260902005517 | 21 | 294 | 6.4 | 30.6 | 0.00 | 0.00 | 0.00 | 54 | 1016.2 |
| 20260902005015 | 21 | 250 | 9.7 | 30.6 | 0.00 | 0.00 | 0.00 | 55 | 1016.4 |
| 20260902004517 | 21 | 278 | 12.9 | 27.4 | 0.00 | 0.00 | 0.00 | 55 | 1016.4 |
| 20260902004012 | 20 | 251 | 8.0 | 29.0 | 0.00 | 0.00 | 0.00 | 56 | 1016.4 |
| 20260902003511 | 20 | 274 | 17.7 | 32.2 | 0.00 | 0.00 | 0.00 | 55 | 1016.5 |
| 20260902003010 | 20 | 240 | 14.5 | 30.6 | 0.00 | 0.00 | 0.00 | 56 | 1016.4 |
| 20260902002510 | 20 | 307 | 12.9 | 32.2 | 0.00 | 0.00 | 0.00 | 56 | 1016.5 |
| 20260902002015 | 20 | 315 | 14.5 | 32.2 | 0.00 | 0.00 | 0.00 | 56 | 1016.6 |
| 20260902001509 | 20 | 288 | 16.1 | 32.2 | 0.00 | 0.00 | 0.00 | 56 | 1016.6 |
| 20260902001009 | 20 | 256 | 12.9 | 22.5 | 0.00 | 0.00 | 0.00 | 57 | 1016.7 |
| 20260902000508 | 20 | 247 | 12.9 | 22.5 | 0.00 | 0.00 | 0.00 | 57 | 1016.9 |
| 20260902000009 | 20 | 244 | 11.3 | 20.9 | 0.00 | 0.00 | 0.00 | 57 | 1017.0 |
| 20260901235508 | 20 | 266 | 11.3 | 24.1 | 0.00 | 0.00 | 0.00 | 57 | 1017.1 |
| 20260901235007 | 20 | 251 | 12.9 | 24.1 | 0.00 | 0.00 | 0.00 | 57 | 1017.1 |
| 20260901234508 | 20 | 267 | 11.3 | 24.1 | 0.00 | 0.00 | 0.00 | 56 | 1017.0 |
| 20260901234008 | 20 | 267 | 12.9 | 24.1 | 0.00 | 0.00 | 0.00 | 56 | 1017.0 |
| 20260901233507 | 19 | 264 | 14.5 | 30.6 | 0.00 | 0.00 | 0.00 | 56 | 1017.2 |
| 20260901233007 | 19 | 278 | 14.5 | 37.0 | 0.00 | 0.00 | 0.00 | 56 | 1017.2 |
| 20260901232507 | 19 | 253 | 17.7 | 37.0 | 0.00 | 0.00 | 0.00 | 55 | 1017.2 |
| 20260901232006 | 19 | 285 | 17.7 | 30.6 | 0.00 | 0.00 | 0.00 | 55 | 1017.3 |
| 20260901231509 | 19 | 285 | 16.1 | 29.0 | 0.00 | 0.00 | 0.00 | 55 | 1017.4 |
| 20260901231007 | 19 | 298 | 16.1 | 38.6 | 0.00 | 0.00 | 0.00 | 56 | 1017.4 |
| 20260901230506 | 19 | 279 | 14.5 | 38.6 | 0.00 | 0.00 | 0.00 | 56 | 1017.5 |
| 20260901230006 | 19 | 259 | 14.5 | 29.0 | 0.00 | 0.00 | 0.00 | 56 | 1017.6 |
| 20260901225506 | 19 | 278 | 14.5 | 29.0 | 0.00 | 0.00 | 0.00 | 57 | 1017.7 |
| 20260901225007 | 19 | 247 | 14.5 | 32.2 | 0.00 | 0.00 | 0.00 | 57 | 1017.8 |
| 20260901224506 | 19 | 306 | 16.1 | 32.2 | 0.00 | 0.00 | 0.00 | 58 | 1017.7 |
| 20260901224005 | 18 | 267 | 19.3 | 30.6 | 0.00 | 0.00 | 0.00 | 59 | 1017.7 |
| 20260901223505 | 18 | 265 | 9.7 | 24.1 | 0.00 | 0.00 | 0.00 | 61 | 1017.8 |
| 20260901223013 | 19 | 313 | 11.3 | 19.3 | 0.00 | 0.00 | 0.00 | 61 | 1017.9 |
| 20260901222506 | 19 | 251 | 6.4 | 19.3 | 0.00 | 0.00 | 0.00 | 59 | 1017.9 |
| 20260901222007 | 20 | 273 | 4.8 | 20.9 | 0.00 | 0.00 | 0.00 | 59 | 1018.0 |
| 20260901221504 | 20 | 288 | 9.7 | 20.9 | 0.00 | 0.00 | 0.00 | 58 | 1018.1 |
| 20260901221004 | 20 | 46 | 6.4 | 19.3 | 0.00 | 0.00 | 0.00 | 54 | 1017.7 |
| 20260901220501 | 20 | 261 | 12.9 | 20.9 | 0.00 | 0.00 | 0.00 | 55 | 1017.9 |
| 20260901220130 | 20 | 254 | 9.7 | 20.9 | 0.00 | 0.00 | 0.00 | 56 | 1017.9 |
| 20260901215601 | 19 | 303 | 8.0 | 14.5 | 0.00 | 0.00 | 0.00 | 57 | 1017.8 |
| 20260901215101 | 19 | 232 | 6.4 | 16.1 | 0.00 | 0.00 | 0.00 | 58 | 1017.7 |
| 20260901214556 | 18 | 250 | 8.0 | 24.1 | 0.00 | 0.00 | 0.00 | 58 | 1017.7 |
| 20260901214056 | 18 | 273 | 6.4 | 24.1 | 0.00 | 0.00 | 0.00 | 59 | 1017.7 |
| 20260901213556 | 18 | 275 | 6.4 | 20.9 | 0.00 | 0.00 | 0.00 | 60 | 1017.6 |
| 20260901213116 | 18 | 297 | 9.7 | 20.9 | 0.00 | 0.00 | 0.00 | 60 | 1017.6 |
| 20260901212556 | 18 | 246 | 8.0 | 17.7 | 0.00 | 0.00 | 0.00 | 59 | 1017.5 |
| 20260901212056 | 18 | 254 | 6.4 | 19.3 | 0.00 | 0.00 | 0.00 | 59 | 1017.3 |
| 20260901211601 | 18 | 240 | 8.0 | 19.3 | 0.00 | 0.00 | 0.00 | 58 | 1017.3 |
| 20260901211056 | 18 | 286 | 6.4 | 22.5 | 0.00 | 0.00 | 0.00 | 58 | 1017.3 |
| 20260901210555 | 18 | 242 | 8.0 | 29.0 | 0.00 | 0.00 | 0.00 | 57 | 1017.2 |
| 20260901205554 | 18 | 270 | 9.7 | 32.2 | 0.00 | 0.00 | 0.00 | 57 | 1017.2 |
| 20260901205054 | 18 | 302 | 11.3 | 32.2 | 0.00 | 0.00 | 0.00 | 57 | 1017.0 |
| 20260901204559 | 18 | 292 | 14.5 | 25.7 | 0.00 | 0.00 | 0.00 | 57 | 1017.0 |
| 20260901204054 | 18 | 258 | 14.5 | 25.7 | 0.00 | 0.00 | 0.00 | 59 | 1017.1 |
| 20260901203551 | 18 | 265 | 9.7 | 20.9 | 0.00 | 0.00 | 0.00 | 59 | 1017.1 |
| 20260901203101 | 18 | 261 | 9.7 | 22.5 | 0.00 | 0.00 | 0.00 | 60 | 1017.0 |
| 20260901202551 | 18 | 270 | 11.3 | 22.5 | 0.00 | 0.00 | 0.00 | 60 | 1017.0 |
| 20260901202054 | 17 | 231 | 11.3 | 24.1 | 0.00 | 0.00 | 0.00 | 60 | 1017.0 |
| 20260901201550 | 17 | 242 | 8.0 | 24.1 | 0.00 | 0.00 | 0.00 | 61 | 1017.0 |
| 20260901201050 | 17 | 279 | 9.7 | 27.4 | 0.00 | 0.00 | 0.00 | 61 | 1016.7 |
| 20260901200549 | 17 | 230 | 11.3 | 27.4 | 0.00 | 0.00 | 0.00 | 61 | 1016.7 |
| 20260901200049 | 17 | 256 | 11.3 | 20.9 | 0.00 | 0.00 | 0.00 | 62 | 1016.7 |
| 20260901195549 | 17 | 266 | 9.7 | 20.9 | 0.00 | 0.00 | 0.00 | 63 | 1016.7 |
| 20260901195051 | 17 | 238 | 9.7 | 19.3 | 0.00 | 0.00 | 0.00 | 64 | 1016.6 |
| 20260901194551 | 17 | 234 | 9.7 | 17.7 | 0.00 | 0.00 | 0.00 | 64 | 1016.5 |
| 20260901194050 | 17 | 250 | 6.4 | 17.7 | 0.00 | 0.00 | 0.00 | 64 | 1016.4 |
| 20260901193549 | 17 | 284 | 9.7 | 17.7 | 0.00 | 0.00 | 0.00 | 64 | 1016.5 |
| 20260901193053 | 16 | 241 | 8.0 | 17.7 | 0.00 | 0.00 | 0.00 | 65 | 1016.5 |
| 20260901192547 | 16 | 263 | 6.4 | 14.5 | 0.00 | 0.00 | 0.00 | 65 | 1016.3 |
| 20260901192054 | 16 | 257 | 6.4 | 14.5 | 0.00 | 0.00 | 0.00 | 66 | 1016.3 |
| 20260901191548 | 16 | 264 | 6.4 | 14.5 | 0.00 | 0.00 | 0.00 | 66 | 1016.3 |
| 20260901191050 | 16 | 281 | 6.4 | 14.5 | 0.00 | 0.00 | 0.00 | 66 | 1016.3 |
| 20260901190546 | 16 | 256 | 6.4 | 17.7 | 0.00 | 0.00 | 0.00 | 66 | 1016.2 |
| 20260901190046 | 16 | 266 | 8.0 | 19.3 | 0.00 | 0.00 | 0.00 | 65 | 1016.2 |
| 20260901185545 | 17 | 271 | 8.0 | 20.9 | 0.00 | 0.00 | 0.00 | 65 | 1016.2 |
| 20260901185047 | 17 | 275 | 11.3 | 20.9 | 0.00 | 0.00 | 0.00 | 64 | 1016.3 |
| 20260901184548 | 17 | 247 | 9.7 | 24.1 | 0.00 | 0.00 | 0.00 | 63 | 1016.3 |
| 20260901184046 | 17 | 281 | 9.7 | 24.1 | 0.00 | 0.00 | 0.00 | 61 | 1016.2 |
| 20260901183545 | 18 | 243 | 14.5 | 25.7 | 0.00 | 0.00 | 0.00 | 60 | 1016.2 |
| 20260901183050 | 18 | 275 | 14.5 | 29.0 | 0.00 | 0.00 | 0.00 | 60 | 1016.2 |
| 20260901182548 | 17 | 276 | 16.1 | 24.1 | 0.00 | 0.00 | 0.00 | 62 | 1016.2 |
| 20260901182044 | 17 | 249 | 16.1 | 29.0 | 0.00 | 0.00 | 0.00 | 62 | 1016.3 |
| 20260901181547 | 17 | 278 | 14.5 | 29.0 | 0.00 | 0.00 | 0.00 | 63 | 1016.3 |
| 20260901181044 | 17 | 263 | 14.5 | 25.7 | 0.00 | 0.00 | 0.00 | 65 | 1016.3 |
| 20260901180543 | 16 | 284 | 11.3 | 24.1 | 0.00 | 0.00 | 0.00 | 66 | 1016.3 |
| 20260901180041 | 16 | 242 | 8.0 | 19.3 | 0.00 | 0.00 | 0.00 | 67 | 1016.3 |
| 20260901175540 | 16 | 254 | 9.7 | 19.3 | 0.00 | 0.00 | 0.00 | 67 | 1016.4 |
| 20260901175040 | 16 | 277 | 8.0 | 19.3 | 0.00 | 0.00 | 0.00 | 66 | 1016.4 |
| 20260901174539 | 16 | 246 | 6.4 | 16.1 | 0.00 | 0.00 | 0.00 | 66 | 1016.5 |
| 20260901174040 | 16 | 260 | 6.4 | 14.5 | 0.00 | 0.00 | 0.00 | 66 | 1016.5 |
| 20260901173546 | 16 | 269 | 4.8 | 14.5 | 0.00 | 0.00 | 0.00 | 65 | 1016.6 |
| 20260901173051 | 17 | 269 | 4.8 | 12.9 | 0.00 | 0.00 | 0.00 | 65 | 1016.5 |
| 20260901172539 | 17 | 300 | 4.8 | 14.5 | 0.00 | 0.00 | 0.00 | 65 | 1016.5 |
| 20260901172040 | 17 | 317 | 6.4 | 19.3 | 0.00 | 0.00 | 0.00 | 65 | 1016.5 |
| 20260901171540 | 17 | 273 | 4.8 | 19.3 | 0.00 | 0.00 | 0.00 | 64 | 1016.5 |
| 20260901171036 | 17 | 277 | 4.8 | 19.3 | 0.00 | 0.00 | 0.00 | 64 | 1016.6 |
| 20260901170536 | 17 | 271 | 6.4 | 20.9 | 0.00 | 0.00 | 0.00 | 64 | 1016.6 |
| 20260901170034 | 17 | 310 | 8.0 | 20.9 | 0.00 | 0.00 | 0.00 | 64 | 1016.6 |
| 20260901165535 | 17 | 245 | 8.0 | 19.3 | 0.00 | 0.03 | 0.00 | 63 | 1016.7 |
| 20260901165037 | 17 | 271 | 8.0 | 19.3 | 0.00 | 0.03 | 0.00 | 63 | 1016.7 |
| 20260901164534 | 17 | 259 | 9.7 | 20.9 | 0.00 | 0.03 | 0.00 | 62 | 1016.8 |
| 20260901164033 | 17 | 263 | 9.7 | 24.1 | 0.00 | 0.03 | 0.00 | 62 | 1016.8 |
| 20260901163533 | 17 | 240 | 12.9 | 22.5 | 0.00 | 0.03 | 0.00 | 62 | 1016.7 |
| 20260901163033 | 17 | 241 | 11.3 | 24.1 | 0.00 | 0.03 | 0.00 | 62 | 1016.9 |
| 20260901162532 | 17 | 254 | 14.5 | 22.5 | 0.00 | 0.03 | 0.00 | 62 | 1016.9 |
| 20260901162032 | 17 | 254 | 11.3 | 22.5 | 0.00 | 0.03 | 0.00 | 62 | 1017.0 |
| 20260901161535 | 17 | 293 | 12.9 | 22.5 | 0.00 | 0.03 | 0.00 | 63 | 1017.0 |
| 20260901161031 | 17 | 292 | 8.0 | 17.7 | 0.00 | 0.03 | 0.00 | 64 | 1017.0 |
| 20260901160528 | 17 | 280 | 8.0 | 17.7 | 0.00 | 0.03 | 0.00 | 64 | 1017.1 |
| 20260901160031 | 17 | 238 | 9.7 | 17.7 | 0.00 | 0.03 | 0.00 | 64 | 1017.2 |
| 20260901155528 | 17 | 294 | 6.4 | 17.7 | 0.00 | 0.03 | 0.00 | 64 | 1017.2 |
| 20260901155030 | 17 | 307 | 8.0 | 17.7 | 0.00 | 0.03 | 0.00 | 65 | 1017.4 |
| 20260901154527 | 17 | 242 | 6.4 | 16.1 | 0.00 | 0.03 | 0.00 | 65 | 1017.4 |
| 20260901154026 | 17 | 257 | 4.8 | 16.1 | 0.00 | 0.03 | 0.00 | 66 | 1017.5 |